カタログに戻る

HAWK-9C

運用中科学VLEO
NORAD 59448·PAYLOAD·🇺🇸 United States

打ち上げ Apr 7, 2024 から Cape Canaveral Space Force Station

Loading…

次のパス (今後24時間)

TLE

最新Source: Space-Track

元期: Sep 14, 2026, 03:46 UTC

1 59448U 24066G   26257.15696712  .00001015  00000-0  10037-3 0  9998
2 59448  45.6093 176.3871 0002265 148.8795 211.2221 14.99367246133187

AllMySatでHAWK-9Cをリアルタイム追跡

Download on the App Store